Simultaneous Nadir Overpasses (SNOs) Predictions

Prediction of SNOs between AQUA and METOP-A Satellite Orbit:

Table of predicted SNOs for the next 14.0 days since TLE Epoch: 2/10/2012
Index Date (AQUA) Time (AQUA) AQUA Lat,Lon Date (METOP-A) Time (METOP-A) METOP-A Lat,Lon Distance(km) Time Diff (sec)
1 02/12/2012 20:33:42 73.69,-134.03 02/12/2012 20:32:30 73.69,-134.23 6.28 72
2 02/12/2012 21:23:10 -73.82, 33.33 02/12/2012 21:23:10 -73.81, 33.37 1.80 0
3 02/12/2012 22:12:38 73.89,-159.19 02/12/2012 22:13:47 73.87,-159.14 2.85 69
4 02/15/2012 16:08:00 73.76, -67.75 02/15/2012 16:06:53 73.75, -67.70 2.25 67
5 02/15/2012 16:57:27 -73.83, 99.74 02/15/2012 16:57:34 -73.82, 99.79 2.54 7
6 02/15/2012 17:46:58 74.01, -93.03 02/15/2012 17:48:09 74.03, -92.37 20.47 71
7 02/18/2012 11:42:17 73.74, -1.27 02/18/2012 11:41:18 73.75, -1.28 1.08 59
8 02/18/2012 12:31:44 -73.81, 166.22 02/18/2012 12:31:59 -73.83, 166.21 1.49 15
9 02/18/2012 13:21:21 74.31, -27.28 02/18/2012 13:22:29 74.28, -25.33 58.74 68
10 02/21/2012 07:16:34 73.74, 65.16 02/21/2012 07:15:43 73.76, 65.14 2.29 51
11 02/21/2012 08:06:01 -73.81,-127.34 02/21/2012 08:06:24 -73.84,-127.36 3.31 23
12 02/24/2012 02:50:50 73.76, 131.56 02/24/2012 02:50:07 73.78, 131.57 1.80 43
13 02/24/2012 03:40:17 -73.82, -60.94 02/24/2012 03:40:48 -73.85, -60.92 3.36 31




NCC Satellite Simultaneous Nadir Overpasses (SNOs) Prediction Service
